Time,TemperatureF,DewpointF,PressureIn,WindDirection,WindDirectionDegrees,WindSpeedMPH,WindSpeedGustMPH,Humidity,HourlyPrecipIn,Conditions,Clouds,dailyrainin,SoftwareType,DateUTC
2013-09-24 00:01:00,44.1,41.3,30.09,SW,225,0.0,0.0,90,0.00,,CLR,0.00,VWS V14.01,2013-09-24 04:01:00,
2013-09-24 00:06:00,43.5,40.8,30.09,SW,225,0.0,0.0,90,0.00,,CLR,0.00,VWS V14.01,2013-09-24 04:06:00,
2013-09-24 00:11:00,43.3,40.6,30.09,SW,225,0.0,0.0,90,0.00,,CLR,0.00,VWS V14.01,2013-09-24 04:11:00,
2013-09-24 00:16:00,43.0,40.2,30.09,SW,225,0.0,0.0,90,0.00,,CLR,0.00,VWS V14.01,2013-09-24 04:16:00,
2013-09-24 00:21:00,43.0,40.2,30.09,SW,225,0.0,0.0,90,0.00,,CLR,0.00,VWS V14.01,2013-09-24 04:21:00,
2013-09-24 00:26:00,42.4,39.7,30.09,SW,225,0.0,0.0,90,0.00,,CLR,0.00,VWS V14.01,2013-09-24 04:26:00,
2013-09-24 00:31:00,42.3,39.5,30.12,SW,225,0.0,0.0,90,0.00,,CLR,0.00,VWS V14.01,2013-09-24 04:31:00,
2013-09-24 00:36:00,42.3,39.8,30.12,SW,225,0.0,0.0,91,0.00,,CLR,0.00,VWS V14.01,2013-09-24 04:36:00,
2013-09-24 00:41:00,41.9,39.5,30.12,SW,225,0.0,0.0,91,0.00,,CLR,0.00,VWS V14.01,2013-09-24 04:41:00,
2013-09-24 00:46:00,41.9,39.5,30.09,SW,225,0.0,0.0,91,0.00,,CLR,0.00,VWS V14.01,2013-09-24 04:46:00,
2013-09-24 00:51:00,41.7,39.3,30.09,SW,225,0.0,0.0,91,0.00,,CLR,0.00,VWS V14.01,2013-09-24 04:51:00,
2013-09-24 00:56:00,41.7,39.3,30.09,SW,225,0.0,0.0,91,0.00,,CLR,0.00,VWS V14.01,2013-09-24 04:56:00,
2013-09-24 01:01:00,42.1,39.9,30.09,SW,225,0.0,0.0,92,0.00,,CLR,0.00,VWS V14.01,2013-09-24 05:01:00,
2013-09-24 01:06:00,43.0,40.8,30.09,SSW,202,0.0,0.0,92,0.00,,CLR,0.00,VWS V14.01,2013-09-24 05:06:00,
2013-09-24 01:11:00,43.3,41.2,30.09,SSW,202,0.0,0.0,92,0.00,,CLR,0.00,VWS V14.01,2013-09-24 05:11:00,
2013-09-24 01:16:00,43.3,41.5,30.12,SSW,202,0.0,0.0,93,0.00,,CLR,0.00,VWS V14.01,2013-09-24 05:16:00,
2013-09-24 01:21:00,43.2,41.3,30.12,SSW,202,0.0,0.0,93,0.00,,CLR,0.00,VWS V14.01,2013-09-24 05:21:00,
2013-09-24 01:26:00,42.8,40.9,30.12,SSW,202,0.0,0.0,93,0.00,,CLR,0.00,VWS V14.01,2013-09-24 05:26:00,
2013-09-24 01:31:00,43.0,41.4,30.09,SSW,202,0.0,0.0,94,0.00,,CLR,0.00,VWS V14.01,2013-09-24 05:31:00,
2013-09-24 01:36:00,43.0,41.4,30.09,SSW,202,0.0,0.0,94,0.00,,CLR,0.00,VWS V14.01,2013-09-24 05:36:00,
2013-09-24 01:41:00,42.6,41.0,30.09,SSW,202,0.0,0.0,94,0.00,,CLR,0.00,VWS V14.01,2013-09-24 05:41:00,
2013-09-24 01:46:00,42.4,40.8,30.09,SSW,202,0.0,0.0,94,0.00,,CLR,0.00,VWS V14.01,2013-09-24 05:46:00,
2013-09-24 01:51:00,42.6,41.0,30.09,SSW,202,0.0,0.0,94,0.00,,CLR,0.00,VWS V14.01,2013-09-24 05:51:00,
2013-09-24 01:56:00,42.4,40.6,30.09,SSW,202,0.0,0.0,93,0.00,,CLR,0.00,VWS V14.01,2013-09-24 05:56:00,
2013-09-24 02:01:00,42.4,40.6,30.12,SSW,202,0.0,0.0,93,0.00,,CLR,0.00,VWS V14.01,2013-09-24 06:01:00,
2013-09-24 02:06:00,42.4,40.6,30.12,SSW,202,0.0,0.0,93,0.00,,CLR,0.00,VWS V14.01,2013-09-24 06:06:00,
2013-09-24 02:11:00,42.6,40.7,30.12,SSW,202,0.0,0.0,93,0.00,,CLR,0.00,VWS V14.01,2013-09-24 06:11:00,
2013-09-24 02:16:00,42.3,40.4,30.12,SSW,202,0.0,0.0,93,0.00,,CLR,0.00,VWS V14.01,2013-09-24 06:16:00,
2013-09-24 02:21:00,42.1,40.2,30.12,SSW,202,0.0,0.0,93,0.00,,CLR,0.00,VWS V14.01,2013-09-24 06:21:00,
2013-09-24 02:26:00,41.7,39.8,30.12,SSW,202,0.0,0.0,93,0.00,,CLR,0.00,VWS V14.01,2013-09-24 06:26:00,
2013-09-24 02:31:00,41.5,39.7,30.12,SSW,202,0.0,0.0,93,0.00,,CLR,0.00,VWS V14.01,2013-09-24 06:31:00,
2013-09-24 02:36:00,41.2,39.0,30.12,SSW,202,0.0,0.0,92,0.00,,CLR,0.00,VWS V14.01,2013-09-24 06:36:00,
2013-09-24 02:41:00,41.2,39.0,30.12,SSW,202,0.0,0.0,92,0.00,,CLR,0.00,VWS V14.01,2013-09-24 06:41:00,
2013-09-24 02:46:00,41.0,39.1,30.12,SSW,202,0.0,0.0,93,0.00,,CLR,0.00,VWS V14.01,2013-09-24 06:46:00,
2013-09-24 02:51:00,41.0,39.1,30.12,SSW,202,0.0,0.0,93,0.00,,CLR,0.00,VWS V14.01,2013-09-24 06:51:00,
2013-09-24 02:56:00,41.0,39.1,30.12,SSW,202,0.0,0.0,93,0.00,,CLR,0.00,VWS V14.01,2013-09-24 06:56:00,
2013-09-24 03:01:00,41.2,39.6,30.12,SSW,202,0.0,0.0,94,0.00,,CLR,0.00,VWS V14.01,2013-09-24 07:01:00,
2013-09-24 03:06:00,41.0,39.4,30.12,SSW,202,0.0,0.0,94,0.00,,CLR,0.00,VWS V14.01,2013-09-24 07:06:00,
2013-09-24 03:11:00,41.0,39.4,30.12,SSW,202,0.0,0.0,94,0.00,,CLR,0.00,VWS V14.01,2013-09-24 07:11:00,
2013-09-24 03:16:00,40.6,39.0,30.12,SSW,202,0.0,0.0,94,0.00,,CLR,0.00,VWS V14.01,2013-09-24 07:16:00,
2013-09-24 03:21:00,40.6,39.0,30.12,SSW,202,0.0,0.0,94,0.00,,CLR,0.00,VWS V14.01,2013-09-24 07:21:00,
2013-09-24 03:26:00,40.6,39.0,30.12,SSW,202,0.0,0.0,94,0.00,,CLR,0.00,VWS V14.01,2013-09-24 07:26:00,
2013-09-24 03:31:00,40.5,38.9,30.12,SSW,202,0.0,0.0,94,0.00,,CLR,0.00,VWS V14.01,2013-09-24 07:31:00,
2013-09-24 03:36:00,40.5,38.9,30.12,SSW,202,0.0,0.0,94,0.00,,CLR,0.00,VWS V14.01,2013-09-24 07:36:00,
2013-09-24 03:41:00,41.0,39.7,30.12,SSW,202,0.0,0.0,95,0.00,,CLR,0.00,VWS V14.01,2013-09-24 07:41:00,
2013-09-24 03:46:00,40.5,39.1,30.09,SSW,202,0.0,0.0,95,0.00,,CLR,0.00,VWS V14.01,2013-09-24 07:46:00,
2013-09-24 03:51:00,40.5,39.1,30.09,SSW,202,0.0,0.0,95,0.00,,CLR,0.00,VWS V14.01,2013-09-24 07:51:00,
2013-09-24 03:56:00,40.3,39.0,30.09,SSW,202,0.0,0.0,95,0.00,,CLR,0.00,VWS V14.01,2013-09-24 07:56:00,
2013-09-24 04:01:00,40.1,38.5,30.09,SSW,202,0.0,0.0,94,0.00,,CLR,0.00,VWS V14.01,2013-09-24 08:01:00,
2013-09-24 04:06:00,40.3,39.0,30.09,SSW,202,0.0,0.0,95,0.00,,CLR,0.00,VWS V14.01,2013-09-24 08:06:00,
2013-09-24 04:11:00,40.1,38.8,30.09,SSW,202,0.0,0.0,95,0.00,,CLR,0.00,VWS V14.01,2013-09-24 08:11:00,
2013-09-24 04:16:00,39.7,38.2,30.12,SSW,202,0.0,0.0,94,0.00,,CLR,0.00,VWS V14.01,2013-09-24 08:16:00,
2013-09-24 04:21:00,39.6,38.0,30.12,SSW,202,0.0,0.0,94,0.00,,CLR,0.00,VWS V14.01,2013-09-24 08:21:00,
2013-09-24 04:26:00,39.4,37.8,30.12,SSW,202,0.0,0.0,94,0.00,,CLR,0.00,VWS V14.01,2013-09-24 08:26:00,
2013-09-24 04:31:00,39.2,37.6,30.12,SSW,202,0.0,0.0,94,0.00,,CLR,0.00,VWS V14.01,2013-09-24 08:31:00,
2013-09-24 04:36:00,39.2,37.6,30.12,SSW,202,0.0,0.0,94,0.00,,CLR,0.00,VWS V14.01,2013-09-24 08:36:00,
2013-09-24 04:41:00,39.0,37.7,30.12,SSW,202,0.0,0.0,95,0.00,,CLR,0.00,VWS V14.01,2013-09-24 08:41:00,
2013-09-24 04:46:00,39.2,37.6,30.12,SSW,202,0.0,0.0,94,0.00,,CLR,0.00,VWS V14.01,2013-09-24 08:46:00,
2013-09-24 04:51:00,39.7,38.7,30.12,SSW,202,0.0,0.0,96,0.00,,CLR,0.00,VWS V14.01,2013-09-24 08:51:00,
2013-09-24 04:56:00,39.4,38.3,30.12,SSW,202,0.0,0.0,96,0.00,,CLR,0.00,VWS V14.01,2013-09-24 08:56:00,
2013-09-24 05:01:00,39.2,38.2,30.12,SSW,202,0.0,0.0,96,0.00,,CLR,0.00,VWS V14.01,2013-09-24 09:01:00,
2013-09-24 05:06:00,38.8,37.5,30.12,SSW,202,0.0,0.0,95,0.00,,CLR,0.00,VWS V14.01,2013-09-24 09:06:00,
2013-09-24 05:11:00,39.2,37.9,30.12,SSW,202,0.0,0.0,95,0.00,,CLR,0.00,VWS V14.01,2013-09-24 09:11:00,
2013-09-24 05:16:00,39.0,38.0,30.12,SSW,202,0.0,0.0,96,0.00,,CLR,0.00,VWS V14.01,2013-09-24 09:16:00,
2013-09-24 05:21:00,38.7,37.6,30.12,SSW,202,0.0,0.0,96,0.00,,CLR,0.00,VWS V14.01,2013-09-24 09:21:00,
2013-09-24 05:26:00,38.7,37.6,30.12,SSW,202,0.0,0.0,96,0.00,,CLR,0.00,VWS V14.01,2013-09-24 09:26:00,
2013-09-24 05:31:00,38.8,37.8,30.12,SSW,202,0.0,0.0,96,0.00,,CLR,0.00,VWS V14.01,2013-09-24 09:31:00,
2013-09-24 05:36:00,38.7,37.6,30.12,SSW,202,0.0,0.0,96,0.00,,CLR,0.00,VWS V14.01,2013-09-24 09:36:00,
2013-09-24 05:41:00,38.7,37.6,30.12,SSW,202,0.0,0.0,96,0.00,,CLR,0.00,VWS V14.01,2013-09-24 09:41:00,
2013-09-24 05:46:00,38.5,37.2,30.12,SSW,202,0.0,0.0,95,0.00,,CLR,0.00,VWS V14.01,2013-09-24 09:46:00,
2013-09-24 05:51:00,38.3,37.0,30.12,SSW,202,0.0,0.0,95,0.00,,CLR,0.00,VWS V14.01,2013-09-24 09:51:00,
2013-09-24 05:56:00,38.5,37.2,30.12,SSW,202,0.0,0.0,95,0.00,,CLR,0.00,VWS V14.01,2013-09-24 09:56:00,
2013-09-24 06:01:00,38.7,37.6,30.12,SSW,202,0.0,0.0,96,0.00,,CLR,0.00,VWS V14.01,2013-09-24 10:01:00,
2013-09-24 06:06:00,38.5,37.4,30.12,SSW,202,0.0,0.0,96,0.00,,CLR,0.00,VWS V14.01,2013-09-24 10:06:00,
2013-09-24 06:11:00,38.3,37.3,30.12,SSW,202,0.0,0.0,96,0.00,,CLR,0.00,VWS V14.01,2013-09-24 10:11:00,
2013-09-24 06:16:00,38.5,37.4,30.12,SSW,202,0.0,0.0,96,0.00,,CLR,0.00,VWS V14.01,2013-09-24 10:16:00,
2013-09-24 06:21:00,38.3,37.3,30.12,SSW,202,0.0,0.0,96,0.00,,CLR,0.00,VWS V14.01,2013-09-24 10:21:00,
2013-09-24 06:26:00,38.1,37.1,30.12,SSW,202,0.0,0.0,96,0.00,,CLR,0.00,VWS V14.01,2013-09-24 10:26:00,
2013-09-24 06:31:00,37.8,36.7,30.12,SSW,202,0.0,0.0,96,0.00,,CLR,0.00,VWS V14.01,2013-09-24 10:31:00,
2013-09-24 06:36:00,37.9,36.9,30.12,SSW,202,0.0,0.0,96,0.00,,CLR,0.00,VWS V14.01,2013-09-24 10:36:00,
2013-09-24 06:41:00,38.3,37.3,30.12,SSW,202,0.0,0.0,96,0.00,,CLR,0.00,VWS V14.01,2013-09-24 10:41:00,
2013-09-24 06:46:00,38.1,37.1,30.12,SSW,202,0.0,0.0,96,0.00,,CLR,0.00,VWS V14.01,2013-09-24 10:46:00,
2013-09-24 06:51:00,37.9,36.6,30.12,SSW,202,0.0,0.0,95,0.00,,CLR,0.00,VWS V14.01,2013-09-24 10:51:00,
2013-09-24 06:56:00,37.9,36.9,30.12,SSW,202,0.0,0.0,96,0.00,,CLR,0.00,VWS V14.01,2013-09-24 10:56:00,
2013-09-24 07:01:00,37.9,36.9,30.12,SW,225,0.0,0.0,96,0.00,,CLR,0.00,VWS V14.01,2013-09-24 11:01:00,
2013-09-24 07:06:00,38.3,37.3,30.12,SW,225,0.0,0.0,96,0.00,,CLR,0.00,VWS V14.01,2013-09-24 11:06:00,
2013-09-24 07:11:00,38.1,37.1,30.12,SW,225,0.0,0.0,96,0.00,,CLR,0.00,VWS V14.01,2013-09-24 11:11:00,
2013-09-24 07:16:00,38.1,37.1,30.12,SW,225,0.0,0.0,96,0.00,,CLR,0.00,VWS V14.01,2013-09-24 11:16:00,
2013-09-24 07:21:00,37.8,36.7,30.12,SW,225,0.0,0.0,96,0.00,,CLR,0.00,VWS V14.01,2013-09-24 11:21:00,
2013-09-24 07:26:00,37.9,36.9,30.12,SW,225,0.0,0.0,96,0.00,,CLR,0.00,VWS V14.01,2013-09-24 11:26:00,
2013-09-24 07:31:00,37.9,36.9,30.15,SW,225,0.0,0.0,96,0.00,,CLR,0.00,VWS V14.01,2013-09-24 11:31:00,
2013-09-24 07:36:00,37.9,36.9,30.15,SW,225,0.0,0.0,96,0.00,,CLR,0.00,VWS V14.01,2013-09-24 11:36:00,
2013-09-24 07:41:00,37.8,36.7,30.15,SW,225,0.0,0.0,96,0.00,,CLR,0.00,VWS V14.01,2013-09-24 11:41:00,
2013-09-24 07:46:00,37.9,37.2,30.15,SW,225,0.0,0.0,97,0.00,,CLR,0.00,VWS V14.01,2013-09-24 11:46:00,
2013-09-24 07:51:00,37.8,37.0,30.15,SW,225,0.0,0.0,97,0.00,,CLR,0.00,VWS V14.01,2013-09-24 11:51:00,
2013-09-24 07:56:00,38.1,37.3,30.15,SW,225,0.0,0.0,97,0.00,,CLR,0.00,VWS V14.01,2013-09-24 11:56:00,
2013-09-24 08:01:00,38.3,37.5,30.12,SW,225,0.0,0.0,97,0.00,,CLR,0.00,VWS V14.01,2013-09-24 12:01:00,
2013-09-24 08:06:00,38.8,38.3,30.12,SW,225,0.0,0.0,98,0.00,,CLR,0.00,VWS V14.01,2013-09-24 12:06:00,
2013-09-24 08:11:00,38.8,38.3,30.12,SW,225,0.0,0.0,98,0.00,,CLR,0.00,VWS V14.01,2013-09-24 12:11:00,
2013-09-24 08:16:00,39.2,38.7,30.15,SW,225,0.0,0.0,98,0.00,,CLR,0.00,VWS V14.01,2013-09-24 12:16:00,
2013-09-24 08:21:00,39.6,39.0,30.15,SW,225,0.0,0.0,98,0.00,,CLR,0.00,VWS V14.01,2013-09-24 12:21:00,
2013-09-24 08:26:00,39.9,39.4,30.15,SW,225,0.0,0.0,98,0.00,,CLR,0.00,VWS V14.01,2013-09-24 12:26:00,
2013-09-24 08:31:00,40.5,39.9,30.15,SW,225,0.0,0.0,98,0.00,,CLR,0.00,VWS V14.01,2013-09-24 12:31:00,
2013-09-24 08:36:00,40.8,40.3,30.15,SW,225,0.0,0.0,98,0.00,,CLR,0.00,VWS V14.01,2013-09-24 12:36:00,
2013-09-24 08:41:00,41.4,40.8,30.15,SW,225,0.0,0.0,98,0.00,,CLR,0.00,VWS V14.01,2013-09-24 12:41:00,
2013-09-24 08:46:00,41.9,41.4,30.15,SW,225,0.0,0.0,98,0.00,,CLR,0.00,VWS V14.01,2013-09-24 12:46:00,
2013-09-24 08:51:00,42.4,41.9,30.15,SW,225,0.0,0.0,98,0.00,,CLR,0.00,VWS V14.01,2013-09-24 12:51:00,
2013-09-24 08:56:00,43.2,42.6,30.15,SW,225,0.0,0.0,98,0.00,,CLR,0.00,VWS V14.01,2013-09-24 12:56:00,
2013-09-24 09:01:00,43.7,43.2,30.12,SW,225,0.0,0.0,98,0.00,,CLR,0.00,VWS V14.01,2013-09-24 13:01:00,
2013-09-24 09:06:00,44.6,44.1,30.12,SW,225,0.0,0.0,98,0.00,,CLR,0.00,VWS V14.01,2013-09-24 13:06:00,
2013-09-24 09:11:00,45.3,44.8,30.12,SW,225,0.0,0.0,98,0.00,,CLR,0.00,VWS V14.01,2013-09-24 13:11:00,
2013-09-24 09:16:00,46.2,45.7,30.15,ENE,68,1.3,1.3,98,0.00,,CLR,0.00,VWS V14.01,2013-09-24 13:16:00,
2013-09-24 09:21:00,46.8,46.2,30.15,ENE,68,1.3,1.3,98,0.00,,CLR,0.00,VWS V14.01,2013-09-24 13:21:00,
2013-09-24 09:26:00,47.3,46.8,30.15,NNW,338,0.0,1.3,98,0.00,,CLR,0.00,VWS V14.01,2013-09-24 13:26:00,
2013-09-24 09:31:00,48.2,47.7,30.15,North,0,0.0,0.0,98,0.00,,CLR,0.00,VWS V14.01,2013-09-24 13:31:00,
2013-09-24 09:36:00,48.9,48.4,30.15,North,0,0.0,0.0,98,0.00,,CLR,0.00,VWS V14.01,2013-09-24 13:36:00,
2013-09-24 09:41:00,50.7,50.2,30.15,North,0,0.0,0.0,98,0.00,,CLR,0.00,VWS V14.01,2013-09-24 13:41:00,
2013-09-24 09:46:00,52.2,51.6,30.12,North,0,0.0,0.0,98,0.00,,CLR,0.00,VWS V14.01,2013-09-24 13:46:00,
2013-09-24 09:51:00,53.2,52.7,30.12,North,0,0.0,0.0,98,0.00,,CLR,0.00,VWS V14.01,2013-09-24 13:51:00,
2013-09-24 09:56:00,54.5,54.0,30.12,North,0,0.0,0.0,98,0.00,,CLR,0.00,VWS V14.01,2013-09-24 13:56:00,
2013-09-24 10:01:00,55.9,55.4,30.12,North,0,0.0,0.0,98,0.00,,CLR,0.00,VWS V14.01,2013-09-24 14:01:00,
2013-09-24 10:06:00,57.4,56.8,30.12,North,0,0.0,0.0,98,0.00,,CLR,0.00,VWS V14.01,2013-09-24 14:06:00,
2013-09-24 10:11:00,58.8,58.3,30.12,East,90,0.0,1.3,98,0.00,,CLR,0.00,VWS V14.01,2013-09-24 14:11:00,
2013-09-24 10:16:00,59.7,59.2,30.12,ENE,68,1.1,2.7,98,0.00,,CLR,0.00,VWS V14.01,2013-09-24 14:16:00,
2013-09-24 10:21:00,61.5,61.0,30.12,NE,45,0.0,2.2,98,0.00,,CLR,0.00,VWS V14.01,2013-09-24 14:21:00,
2013-09-24 10:26:00,63.7,63.1,30.12,East,90,0.0,1.1,98,0.00,,CLR,0.00,VWS V14.01,2013-09-24 14:26:00,
2013-09-24 10:31:00,64.4,63.8,30.12,SSE,158,1.1,1.1,98,0.00,,CLR,0.00,VWS V14.01,2013-09-24 14:31:00,
2013-09-24 10:36:00,65.1,64.5,30.12,ESE,112,2.2,2.2,98,0.00,,CLR,0.00,VWS V14.01,2013-09-24 14:36:00,
2013-09-24 10:41:00,67.1,65.9,30.12,ENE,68,1.6,3.8,96,0.00,,CLR,0.00,VWS V14.01,2013-09-24 14:41:00,
2013-09-24 10:46:00,67.8,62.5,30.12,SE,135,1.6,4.3,83,0.00,,CLR,0.00,VWS V14.01,2013-09-24 14:46:00,
2013-09-24 10:51:00,69.3,59.1,30.12,SE,135,2.0,4.3,70,0.00,,CLR,0.00,VWS V14.01,2013-09-24 14:51:00,
2013-09-24 10:56:00,70.2,56.5,30.12,East,90,3.8,5.4,62,0.00,,CLR,0.00,VWS V14.01,2013-09-24 14:56:00,
2013-09-24 11:01:00,71.6,57.0,30.12,East,90,3.6,5.6,60,0.00,,BKN025,0.00,VWS V14.01,2013-09-24 15:01:00,
2013-09-24 11:06:00,72.7,56.1,30.12,ESE,112,3.8,5.4,56,0.00,,BKN025,0.00,VWS V14.01,2013-09-24 15:06:00,
2013-09-24 11:11:00,73.9,55.2,30.12,ESE,112,4.3,5.6,52,0.00,,BKN025,0.00,VWS V14.01,2013-09-24 15:11:00,
2013-09-24 11:16:00,74.5,54.1,30.12,East,90,4.9,4.9,49,0.00,,BKN025,0.00,VWS V14.01,2013-09-24 15:16:00,
2013-09-24 11:21:00,74.8,53.3,30.12,South,180,3.1,4.9,47,0.00,,BKN025,0.00,VWS V14.01,2013-09-24 15:21:00,
2013-09-24 11:26:00,75.6,53.3,30.12,South,180,2.7,6.0,46,0.00,,BKN025,0.00,VWS V14.01,2013-09-24 15:26:00,
2013-09-24 11:31:00,77.0,53.4,30.12,East,90,3.6,4.9,44,0.00,,BKN025,0.00,VWS V14.01,2013-09-24 15:31:00,
2013-09-24 11:36:00,77.0,51.5,30.12,NE,45,3.6,7.8,41,0.00,,BKN025,0.00,VWS V14.01,2013-09-24 15:36:00,
2013-09-24 11:41:00,79.5,53.1,30.12,East,90,3.8,4.0,40,0.00,,BKN025,0.00,VWS V14.01,2013-09-24 15:41:00,
2013-09-24 11:46:00,79.5,53.1,30.12,South,180,3.4,6.0,40,0.00,,BKN025,0.00,VWS V14.01,2013-09-24 15:46:00,
2013-09-24 11:51:00,81.1,53.2,30.12,NW,315,1.6,5.6,38,0.00,,BKN025,0.00,VWS V14.01,2013-09-24 15:51:00,
2013-09-24 11:56:00,84.0,55.0,30.12,NNW,338,1.3,2.0,37,0.00,,BKN025,0.00,VWS V14.01,2013-09-24 15:56:00,
2013-09-24 12:01:00,83.3,54.3,30.09,NW,315,2.7,3.1,37,0.00,,,0.00,VWS V14.01,2013-09-24 16:01:00,
2013-09-24 12:06:00,82.9,54.0,30.09,NW,315,2.7,2.7,37,0.00,,,0.00,VWS V14.01,2013-09-24 16:06:00,
2013-09-24 12:11:00,80.6,50.5,30.09,NNW,338,2.5,2.7,35,0.00,,,0.00,VWS V14.01,2013-09-24 16:11:00,
2013-09-24 12:16:00,80.4,51.0,30.09,ENE,68,2.0,2.9,36,0.00,,,0.00,VWS V14.01,2013-09-24 16:16:00,
2013-09-24 12:21:00,83.3,53.6,30.09,SSE,158,1.6,5.4,36,0.00,,,0.00,VWS V14.01,2013-09-24 16:21:00,
2013-09-24 12:26:00,85.5,53.1,30.09,South,180,2.2,5.4,33,0.00,,,0.00,VWS V14.01,2013-09-24 16:26:00,
2013-09-24 12:31:00,85.3,53.8,30.09,NE,45,1.6,2.0,34,0.00,,,0.00,VWS V14.01,2013-09-24 16:31:00,
2013-09-24 12:36:00,80.8,49.0,30.09,SSW,202,0.0,4.0,33,0.00,,,0.00,VWS V14.01,2013-09-24 16:36:00,
2013-09-24 12:41:00,86.4,53.0,30.09,WSW,248,2.5,2.5,32,0.00,,,0.00,VWS V14.01,2013-09-24 16:41:00,
2013-09-24 12:46:00,89.6,53.2,30.09,NNW,338,2.7,3.8,29,0.00,,,0.00,VWS V14.01,2013-09-24 16:46:00,
2013-09-24 12:51:00,89.2,52.9,30.09,North,0,3.8,3.8,29,0.00,,,0.00,VWS V14.01,2013-09-24 16:51:00,
2013-09-24 12:56:00,89.8,52.4,30.09,NW,315,2.5,3.8,28,0.00,,,0.00,VWS V14.01,2013-09-24 16:56:00,
2013-09-24 13:01:00,91.2,53.6,30.09,NW,315,2.5,2.5,28,0.00,,,0.00,VWS V14.01,2013-09-24 17:01:00,
2013-09-24 13:06:00,93.4,53.4,30.09,NE,45,0.9,2.5,26,0.00,,,0.00,VWS V14.01,2013-09-24 17:06:00,
2013-09-24 13:11:00,88.7,51.4,30.09,NW,315,0.9,0.9,28,0.00,,,0.00,VWS V14.01,2013-09-24 17:11:00,
2013-09-24 13:16:00,86.0,49.1,30.06,NNW,338,2.0,3.8,28,0.00,,,0.00,VWS V14.01,2013-09-24 17:16:00,
2013-09-24 13:21:00,88.9,51.6,30.06,NE,45,1.3,3.4,28,0.00,,,0.00,VWS V14.01,2013-09-24 17:21:00,
2013-09-24 13:26:00,85.5,49.6,30.06,SSW,202,3.6,3.6,29,0.00,,,0.00,VWS V14.01,2013-09-24 17:26:00,
2013-09-24 13:31:00,88.7,51.4,30.06,NW,315,2.9,5.4,28,0.00,,,0.00,VWS V14.01,2013-09-24 17:31:00,
2013-09-24 13:36:00,89.2,51.9,30.06,NW,315,2.9,3.6,28,0.00,,,0.00,VWS V14.01,2013-09-24 17:36:00,
2013-09-24 13:41:00,85.6,49.8,30.06,WNW,292,0.0,4.9,29,0.00,,,0.00,VWS V14.01,2013-09-24 17:41:00,
2013-09-24 13:46:00,85.5,49.6,30.06,West,270,1.1,1.1,29,0.00,,,0.00,VWS V14.01,2013-09-24 17:46:00,
2013-09-24 13:51:00,86.5,50.5,30.06,NW,315,0.0,2.2,29,0.00,,,0.00,VWS V14.01,2013-09-24 17:51:00,
2013-09-24 13:56:00,89.1,51.8,30.06,East,90,2.9,2.9,28,0.00,,,0.00,VWS V14.01,2013-09-24 17:56:00,
2013-09-24 14:01:00,86.9,51.8,30.03,NNW,338,2.7,5.8,30,0.00,,CLR,0.00,VWS V14.01,2013-09-24 18:01:00,
2013-09-24 14:06:00,85.1,49.3,30.03,NE,45,1.3,5.6,29,0.00,,CLR,0.00,VWS V14.01,2013-09-24 18:06:00,
2013-09-24 14:11:00,85.1,49.3,30.03,WSW,248,1.6,2.5,29,0.00,,CLR,0.00,VWS V14.01,2013-09-24 18:11:00,
2013-09-24 14:16:00,85.1,49.3,30.03,West,270,1.1,2.5,29,0.00,,CLR,0.00,VWS V14.01,2013-09-24 18:16:00,
2013-09-24 14:21:00,86.9,50.8,30.03,North,0,2.5,2.5,29,0.00,,CLR,0.00,VWS V14.01,2013-09-24 18:21:00,
2013-09-24 14:26:00,87.4,51.3,30.03,SSW,202,2.9,4.3,29,0.00,,CLR,0.00,VWS V14.01,2013-09-24 18:26:00,
2013-09-24 14:31:00,87.3,51.2,30.03,WNW,292,1.1,4.0,29,0.00,,CLR,0.00,VWS V14.01,2013-09-24 18:31:00,
2013-09-24 14:36:00,88.7,51.4,30.03,WNW,292,2.7,6.3,28,0.00,,CLR,0.00,VWS V14.01,2013-09-24 18:36:00,
2013-09-24 14:41:00,90.7,52.1,30.03,South,180,2.5,2.9,27,0.00,,CLR,0.00,VWS V14.01,2013-09-24 18:41:00,
2013-09-24 14:46:00,88.2,50.0,30.03,NNW,338,1.1,2.7,27,0.00,,CLR,0.00,VWS V14.01,2013-09-24 18:46:00,
2013-09-24 14:51:00,84.9,49.2,30.03,WNW,292,2.2,3.1,29,0.00,,CLR,0.00,VWS V14.01,2013-09-24 18:51:00,
2013-09-24 14:56:00,83.5,47.9,30.03,North,0,2.2,2.2,29,0.00,,CLR,0.00,VWS V14.01,2013-09-24 18:56:00,
2013-09-24 15:01:00,86.4,50.4,30.03,NW,315,0.0,1.1,29,0.00,,SCT034,0.00,VWS V14.01,2013-09-24 19:01:00,
2013-09-24 15:06:00,86.5,51.5,30.03,South,180,4.0,4.0,30,0.00,,SCT034,0.00,VWS V14.01,2013-09-24 19:06:00,
2013-09-24 15:11:00,84.0,49.3,30.03,SE,135,3.4,3.4,30,0.00,,SCT034,0.00,VWS V14.01,2013-09-24 19:11:00,
2013-09-24 15:16:00,84.4,49.6,30.03,SE,135,3.4,3.4,30,0.00,,SCT034,0.00,VWS V14.01,2013-09-24 19:16:00,
2013-09-24 15:21:00,89.4,52.1,30.03,SW,225,0.0,0.0,28,0.00,,SCT034,0.00,VWS V14.01,2013-09-24 19:21:00,
2013-09-24 15:26:00,89.8,51.4,30.03,WSW,248,0.0,0.0,27,0.00,,SCT034,0.00,VWS V14.01,2013-09-24 19:26:00,
2013-09-24 15:31:00,90.5,52.0,30.03,WSW,248,0.0,0.0,27,0.00,,SCT034,0.00,VWS V14.01,2013-09-24 19:31:00,
2013-09-24 15:36:00,90.7,50.1,30.03,WSW,248,0.0,0.0,25,0.00,,SCT034,0.00,VWS V14.01,2013-09-24 19:36:00,
2013-09-24 15:41:00,90.7,49.0,30.03,WSW,248,0.0,0.0,24,0.00,,SCT034,0.00,VWS V14.01,2013-09-24 19:41:00,
2013-09-24 15:46:00,90.7,49.0,30.03,WSW,248,0.0,0.0,24,0.00,,SCT034,0.00,VWS V14.01,2013-09-24 19:46:00,
2013-09-24 15:51:00,89.2,47.8,30.03,NW,315,1.3,4.3,24,0.00,,SCT034,0.00,VWS V14.01,2013-09-24 19:51:00,
2013-09-24 15:56:00,87.6,50.5,30.03,NE,45,0.9,2.5,28,0.00,,SCT034,0.00,VWS V14.01,2013-09-24 19:56:00,
2013-09-24 16:01:00,87.3,50.2,30.00,WSW,248,1.1,3.1,28,0.00,,CLR,0.00,VWS V14.01,2013-09-24 20:01:00,
2013-09-24 16:06:00,87.8,50.7,30.00,SSW,202,0.0,2.5,28,0.00,,CLR,0.00,VWS V14.01,2013-09-24 20:06:00,
2013-09-24 16:11:00,86.4,49.4,30.00,NE,45,2.0,2.0,28,0.00,,CLR,0.00,VWS V14.01,2013-09-24 20:11:00,
2013-09-24 16:16:00,83.3,47.8,30.00,ENE,68,1.6,2.2,29,0.00,,CLR,0.00,VWS V14.01,2013-09-24 20:16:00,
2013-09-24 16:21:00,82.8,48.2,30.00,East,90,0.0,1.6,30,0.00,,CLR,0.00,VWS V14.01,2013-09-24 20:21:00,
2013-09-24 16:26:00,81.1,50.1,30.00,SSW,202,0.0,2.7,34,0.00,,CLR,0.00,VWS V14.01,2013-09-24 20:26:00,
2013-09-24 16:31:00,77.9,53.0,30.00,SSE,158,2.0,2.7,42,0.00,,CLR,0.00,VWS V14.01,2013-09-24 20:31:00,
2013-09-24 16:36:00,76.8,53.3,30.00,South,180,2.0,2.0,44,0.00,,CLR,0.00,VWS V14.01,2013-09-24 20:36:00,
2013-09-24 16:41:00,76.8,52.0,30.00,West,270,0.0,1.6,42,0.00,,CLR,0.00,VWS V14.01,2013-09-24 20:41:00,
2013-09-24 16:46:00,75.6,53.3,30.00,South,180,1.6,2.0,46,0.00,,CLR,0.00,VWS V14.01,2013-09-24 20:46:00,
2013-09-24 16:51:00,75.7,54.7,30.00,South,180,0.0,2.0,48,0.00,,CLR,0.00,VWS V14.01,2013-09-24 20:51:00,
2013-09-24 16:56:00,75.2,54.8,30.00,South,180,1.1,2.0,49,0.00,,CLR,0.00,VWS V14.01,2013-09-24 20:56:00,
2013-09-24 17:01:00,73.4,54.2,29.97,South,180,1.3,2.0,51,0.00,,BKN039,0.00,VWS V14.01,2013-09-24 21:01:00,
2013-09-24 17:06:00,72.5,54.4,29.97,SSW,202,0.0,1.3,53,0.00,,BKN039,0.00,VWS V14.01,2013-09-24 21:06:00,
2013-09-24 17:11:00,73.8,55.1,29.97,WNW,292,0.0,0.0,52,0.00,,BKN039,0.00,VWS V14.01,2013-09-24 21:11:00,
2013-09-24 17:16:00,72.9,55.3,29.97,SSW,202,1.3,2.5,54,0.00,,BKN039,0.00,VWS V14.01,2013-09-24 21:16:00,
2013-09-24 17:21:00,72.3,55.8,29.97,South,180,1.3,2.2,56,0.00,,BKN039,0.00,VWS V14.01,2013-09-24 21:21:00,
2013-09-24 17:26:00,72.3,55.8,29.97,SSW,202,1.1,2.5,56,0.00,,BKN039,0.00,VWS V14.01,2013-09-24 21:26:00,
2013-09-24 17:30:00,73.2,57.1,29.94,SW,225,1.6,2.2,57,0.00,,BKN039,0.00,VWS V14.01,2013-09-24 21:30:00,
2013-09-24 17:35:00,74.1,56.9,29.94,South,180,0.9,2.0,55,0.00,,BKN039,0.00,VWS V14.01,2013-09-24 21:35:00,
2013-09-24 17:40:00,73.6,55.9,29.94,South,180,2.7,2.7,54,0.00,,BKN039,0.00,VWS V14.01,2013-09-24 21:40:00,
2013-09-24 17:45:00,73.0,55.9,29.94,South,180,2.2,2.5,55,0.00,,BKN039,0.00,VWS V14.01,2013-09-24 21:45:00,
2013-09-24 17:50:00,72.1,55.1,29.94,SSW,202,1.6,2.0,55,0.00,,BKN039,0.00,VWS V14.01,2013-09-24 21:50:00,
2013-09-24 17:55:00,70.9,54.9,29.94,South,180,1.6,2.7,57,0.00,,BKN039,0.00,VWS V14.01,2013-09-24 21:55:00,
2013-09-24 18:00:00,71.2,55.2,29.94,SW,225,0.9,0.9,57,0.00,,CLR,0.00,VWS V14.01,2013-09-24 22:00:00,
2013-09-24 18:05:00,71.2,56.2,29.94,SSW,202,1.6,1.6,59,0.00,,CLR,0.00,VWS V14.01,2013-09-24 22:05:00,
2013-09-24 18:10:00,70.2,56.1,29.94,SSW,202,1.6,2.5,61,0.00,,CLR,0.00,VWS V14.01,2013-09-24 22:10:00,
2013-09-24 18:15:00,69.3,55.7,29.97,South,180,1.3,2.7,62,0.00,,CLR,0.00,VWS V14.01,2013-09-24 22:15:00,
2013-09-24 18:20:00,69.4,55.4,29.97,SW,225,0.0,0.9,61,0.00,,CLR,0.00,VWS V14.01,2013-09-24 22:20:00,
2013-09-24 18:25:00,69.3,55.7,29.97,SSW,202,0.0,0.0,62,0.00,,CLR,0.00,VWS V14.01,2013-09-24 22:25:00,
2013-09-24 18:30:00,68.4,55.3,29.94,SSW,202,0.0,0.0,63,0.00,,CLR,0.00,VWS V14.01,2013-09-24 22:30:00,
2013-09-24 18:35:00,67.8,54.8,29.94,SSW,202,0.0,0.0,63,0.00,,CLR,0.00,VWS V14.01,2013-09-24 22:35:00,
2013-09-24 18:40:00,66.9,54.8,29.94,SW,225,0.0,0.0,65,0.00,,CLR,0.00,VWS V14.01,2013-09-24 22:40:00,
2013-09-24 18:45:00,65.8,55.0,29.97,South,180,0.9,2.2,68,0.00,,CLR,0.00,VWS V14.01,2013-09-24 22:45:00,
2013-09-24 18:50:00,64.8,54.0,29.97,South,180,0.0,1.3,68,0.00,,CLR,0.00,VWS V14.01,2013-09-24 22:50:00,
2013-09-24 18:55:00,64.2,54.2,29.97,South,180,0.0,0.0,70,0.00,,CLR,0.00,VWS V14.01,2013-09-24 22:55:00,
2013-09-24 19:00:00,63.9,55.0,29.97,South,180,0.0,0.0,73,0.00,,CLR,0.00,VWS V14.01,2013-09-24 23:00:00,
2013-09-24 19:05:00,63.0,54.2,29.97,South,180,0.0,1.3,73,0.00,,FEW039,0.00,VWS V14.01,2013-09-24 23:05:00,
2013-09-24 19:10:00,62.2,54.2,29.97,South,180,0.0,0.0,75,0.00,,FEW039,0.00,VWS V14.01,2013-09-24 23:10:00,
2013-09-24 19:15:00,61.7,54.1,29.97,South,180,0.0,0.0,76,0.00,,FEW039,0.00,VWS V14.01,2013-09-24 23:15:00,
2013-09-24 19:20:00,61.2,53.9,29.97,South,180,0.0,0.0,77,0.00,,FEW039,0.00,VWS V14.01,2013-09-24 23:20:00,
2013-09-24 19:25:00,60.8,53.9,29.97,SSE,158,0.0,0.9,78,0.00,,FEW039,0.00,VWS V14.01,2013-09-24 23:25:00,
2013-09-24 19:30:00,60.4,53.6,29.97,West,270,0.0,0.0,78,0.00,,FEW039,0.00,VWS V14.01,2013-09-24 23:30:00,
2013-09-24 19:35:00,59.9,53.0,29.97,West,270,0.0,0.0,78,0.00,,FEW039,0.00,VWS V14.01,2013-09-24 23:35:00,
2013-09-24 19:40:00,59.4,52.9,29.97,WSW,248,0.0,0.0,79,0.00,,FEW039,0.00,VWS V14.01,2013-09-24 23:40:00,
2013-09-24 19:45:00,59.0,52.8,29.97,WSW,248,0.0,0.0,80,0.00,,FEW039,0.00,VWS V14.01,2013-09-24 23:45:00,
2013-09-24 19:50:00,58.5,52.7,29.97,WSW,248,0.0,0.0,81,0.00,,FEW039,0.00,VWS V14.01,2013-09-24 23:50:00,
2013-09-24 19:55:00,58.1,52.6,29.97,WSW,248,0.0,0.0,82,0.00,,FEW039,0.00,VWS V14.01,2013-09-24 23:55:00,
2013-09-24 20:00:00,57.9,52.5,29.97,WSW,248,0.0,0.0,82,0.00,,FEW039,0.00,VWS V14.01,2013-09-25 00:00:00,
2013-09-24 20:05:00,57.7,52.3,29.97,WSW,248,0.0,0.0,82,0.00,,CLR,0.00,VWS V14.01,2013-09-25 00:05:00,
2013-09-24 20:10:00,57.7,52.6,29.97,WSW,248,0.0,0.0,83,0.00,,CLR,0.00,VWS V14.01,2013-09-25 00:10:00,
2013-09-24 20:15:00,57.4,52.3,29.94,WSW,248,0.0,0.0,83,0.00,,CLR,0.00,VWS V14.01,2013-09-25 00:15:00,
2013-09-24 20:20:00,57.0,52.2,29.94,WSW,248,0.0,0.0,84,0.00,,CLR,0.00,VWS V14.01,2013-09-25 00:20:00,
2013-09-24 20:25:00,56.7,51.9,29.94,West,270,0.0,0.0,84,0.00,,CLR,0.00,VWS V14.01,2013-09-25 00:25:00,
2013-09-24 20:30:00,56.5,52.0,29.97,West,270,0.0,0.0,85,0.00,,CLR,0.00,VWS V14.01,2013-09-25 00:30:00,
2013-09-24 20:35:00,56.3,51.9,29.97,West,270,0.0,0.0,85,0.00,,CLR,0.00,VWS V14.01,2013-09-25 00:35:00,
2013-09-24 20:40:00,56.3,51.9,29.97,West,270,0.0,0.0,85,0.00,,CLR,0.00,VWS V14.01,2013-09-25 00:40:00,
2013-09-24 20:45:00,56.1,51.7,29.97,West,270,0.0,0.0,85,0.00,,CLR,0.00,VWS V14.01,2013-09-25 00:45:00,
2013-09-24 20:50:00,56.1,52.6,29.97,SSE,158,0.0,0.0,88,0.00,,CLR,0.00,VWS V14.01,2013-09-25 00:50:00,
2013-09-24 20:55:00,55.8,52.0,29.97,SSE,158,0.0,0.0,87,0.00,,CLR,0.00,VWS V14.01,2013-09-25 00:55:00,
2013-09-24 21:00:00,55.4,51.6,29.97,SSE,158,0.0,0.0,87,0.00,,CLR,0.00,VWS V14.01,2013-09-25 01:00:00,
2013-09-24 21:05:00,55.2,51.4,29.97,SSE,158,0.0,0.0,87,0.00,,CLR,0.00,VWS V14.01,2013-09-25 01:05:00,
2013-09-24 21:10:00,55.6,52.1,29.97,SSE,158,0.0,0.0,88,0.00,,CLR,0.00,VWS V14.01,2013-09-25 01:10:00,
2013-09-24 21:15:00,54.9,51.4,29.97,SSE,158,0.0,0.0,88,0.00,,CLR,0.00,VWS V14.01,2013-09-25 01:15:00,
2013-09-24 21:20:00,54.5,51.3,29.97,SSE,158,0.0,0.0,89,0.00,,CLR,0.00,VWS V14.01,2013-09-25 01:20:00,
2013-09-24 21:25:00,54.5,51.3,29.97,SSE,158,0.0,0.0,89,0.00,,CLR,0.00,VWS V14.01,2013-09-25 01:25:00,
2013-09-24 21:30:00,54.5,51.6,29.97,SSW,202,0.0,0.0,90,0.00,,CLR,0.00,VWS V14.01,2013-09-25 01:30:00,
2013-09-24 21:35:00,54.0,51.1,29.97,SSW,202,0.0,0.0,90,0.00,,CLR,0.00,VWS V14.01,2013-09-25 01:35:00,
2013-09-24 21:40:00,53.8,50.9,29.97,SSW,202,0.0,0.0,90,0.00,,CLR,0.00,VWS V14.01,2013-09-25 01:40:00,
2013-09-24 21:45:00,53.4,50.6,30.00,SSW,202,0.0,0.0,90,0.00,,CLR,0.00,VWS V14.01,2013-09-25 01:45:00,
2013-09-24 21:50:00,53.8,50.6,30.00,SSW,202,0.0,0.0,89,0.00,,CLR,0.00,VWS V14.01,2013-09-25 01:50:00,
2013-09-24 21:55:00,53.8,50.9,30.00,SSW,202,0.0,0.0,90,0.00,,CLR,0.00,VWS V14.01,2013-09-25 01:55:00,
2013-09-24 22:00:00,53.4,50.9,30.00,SSW,202,0.0,0.0,91,0.00,,CLR,0.00,VWS V14.01,2013-09-25 02:00:00,
2013-09-24 22:05:00,53.4,50.9,30.00,SSW,202,0.0,0.0,91,0.00,,CLR,0.00,VWS V14.01,2013-09-25 02:05:00,
2013-09-24 22:10:00,53.4,50.9,30.00,SSW,202,0.0,0.0,91,0.00,,CLR,0.00,VWS V14.01,2013-09-25 02:10:00,
2013-09-24 22:15:00,53.4,50.9,30.00,SSW,202,0.0,0.0,91,0.00,,CLR,0.00,VWS V14.01,2013-09-25 02:15:00,
2013-09-24 22:20:00,53.1,50.5,30.00,SSW,202,0.0,0.0,91,0.00,,CLR,0.00,VWS V14.01,2013-09-25 02:20:00,
2013-09-24 22:25:00,53.1,50.5,30.00,SSW,202,0.0,0.0,91,0.00,,CLR,0.00,VWS V14.01,2013-09-25 02:25:00,
2013-09-24 22:30:00,53.2,50.7,30.00,SSW,202,0.0,0.0,91,0.00,,CLR,0.00,VWS V14.01,2013-09-25 02:30:00,
2013-09-24 22:35:00,53.8,51.8,30.00,SSW,202,0.0,0.0,93,0.00,,CLR,0.00,VWS V14.01,2013-09-25 02:35:00,
2013-09-24 22:40:00,53.8,52.1,30.00,South,180,0.0,0.0,94,0.00,,CLR,0.00,VWS V14.01,2013-09-25 02:40:00,
2013-09-24 22:45:00,53.4,52.0,30.00,South,180,0.0,0.0,95,0.00,,CLR,0.00,VWS V14.01,2013-09-25 02:45:00,
2013-09-24 22:50:00,53.1,51.4,30.00,South,180,0.0,0.0,94,0.00,,CLR,0.00,VWS V14.01,2013-09-25 02:50:00,
2013-09-24 22:55:00,53.1,51.4,30.00,South,180,0.0,0.0,94,0.00,,CLR,0.00,VWS V14.01,2013-09-25 02:55:00,
2013-09-24 23:00:00,53.1,51.4,30.03,South,180,0.0,0.0,94,0.00,,CLR,0.00,VWS V14.01,2013-09-25 03:00:00,
2013-09-24 23:05:00,52.9,51.2,30.03,South,180,0.0,0.0,94,0.00,,CLR,0.00,VWS V14.01,2013-09-25 03:05:00,
2013-09-24 23:10:00,52.7,51.0,30.03,South,180,0.0,0.0,94,0.00,,CLR,0.00,VWS V14.01,2013-09-25 03:10:00,
2013-09-24 23:15:00,52.9,51.2,30.00,South,180,0.0,0.0,94,0.00,,CLR,0.00,VWS V14.01,2013-09-25 03:15:00,
2013-09-24 23:20:00,53.2,51.6,30.00,South,180,0.0,1.6,94,0.00,,CLR,0.00,VWS V14.01,2013-09-25 03:20:00,
2013-09-24 23:25:00,52.9,51.2,30.00,South,180,0.0,0.0,94,0.00,,CLR,0.00,VWS V14.01,2013-09-25 03:25:00,
2013-09-24 23:30:00,52.9,51.2,30.00,South,180,0.0,0.0,94,0.00,,CLR,0.00,VWS V14.01,2013-09-25 03:30:00,
2013-09-24 23:35:00,52.7,51.3,30.00,SW,225,0.0,0.0,95,0.00,,CLR,0.00,VWS V14.01,2013-09-25 03:35:00,
2013-09-24 23:40:00,52.5,51.1,30.00,SW,225,0.0,0.0,95,0.00,,CLR,0.00,VWS V14.01,2013-09-25 03:40:00,
2013-09-24 23:45:00,52.5,51.1,30.00,SW,225,0.0,0.0,95,0.00,,CLR,0.00,VWS V14.01,2013-09-25 03:45:00,
2013-09-24 23:50:00,52.3,51.0,30.00,SSW,202,0.0,0.0,95,0.00,,CLR,0.00,VWS V14.01,2013-09-25 03:50:00,
2013-09-24 23:55:00,52.3,51.0,30.00,South,180,0.0,0.0,95,0.00,,CLR,0.00,VWS V14.01,2013-09-25 03:55:00,